| time (UTC) | temp F | wind direction | speed knots | gust knots | rain 1hr in | rain 24hr in | rain mn in | humidity % | barometer mb |
| 20260904221333 | 103 | 223 | 6.1 | 8.7 | 0.00 | 0.00 | 0.00 | 26 | 1007.8 |
| 20260904220341 | 103 | 193 | 5.2 | 7.8 | 0.00 | 0.00 | 0.00 | 26 | 1007.9 |
| 20260904215349 | 102 | 184 | 3.5 | 8.7 | 0.00 | 0.00 | 0.00 | 28 | 1008.1 |
| 20260904214358 | 102 | 69 | 1.7 | 6.1 | 0.00 | 0.00 | 0.00 | 28 | 1008.3 |
| 20260904213343 | 102 | 242 | 1.7 | 7.8 | 0.00 | 0.00 | 0.00 | 29 | 1008.4 |
| 20260904212330 | 103 | 186 | 2.6 | 8.7 | 0.00 | 0.00 | 0.00 | 28 | 1008.5 |
| 20260904211337 | 103 | 169 | 2.6 | 6.1 | 0.00 | 0.00 | 0.00 | 30 | 1008.6 |
| 20260904210328 | 102 | 130 | 0.9 | 7.8 | 0.00 | 0.00 | 0.00 | 30 | 1008.8 |
| 20260904205335 | 101 | 271 | 2.6 | 7.8 | 0.00 | 0.00 | 0.00 | 30 | 1008.8 |
| 20260904204343 | 101 | 261 | 3.5 | 6.1 | 0.00 | 0.00 | 0.00 | 31 | 1008.9 |
| 20260904203329 | 100 | 130 | 1.7 | 8.7 | 0.00 | 0.00 | 0.00 | 32 | 1009.2 |
| 20260904202340 | 100 | 122 | 2.6 | 7.8 | 0.00 | 0.00 | 0.00 | 33 | 1009.3 |
| 20260904201328 | 100 | 171 | 2.6 | 8.7 | 0.00 | 0.00 | 0.00 | 33 | 1009.5 |
| 20260904200334 | 99 | 268 | 1.7 | 4.3 | 0.00 | 0.00 | 0.00 | 33 | 1009.7 |
| 20260904195338 | 99 | 204 | 4.3 | 13.0 | 0.00 | 0.00 | 0.00 | 34 | 1009.9 |
| 20260904194329 | 99 | 150 | 3.5 | 8.7 | 0.00 | 0.00 | 0.00 | 35 | 1009.9 |
| 20260904193336 | 98 | 108 | 3.5 | 6.1 | 0.00 | 0.00 | 0.00 | 36 | 1009.9 |
| 20260904192343 | 98 | 142 | 0.9 | 7.8 | 0.00 | 0.00 | 0.00 | 36 | 1010.1 |
| 20260904191328 | 98 | 165 | 5.2 | 9.6 | 0.00 | 0.00 | 0.00 | 37 | 1010.2 |
| 20260904190339 | 98 | 140 | 5.2 | 10.4 | 0.00 | 0.00 | 0.00 | 37 | 1010.4 |
| 20260904185327 | 98 | 113 | 4.3 | 6.1 | 0.00 | 0.00 | 0.00 | 38 | 1010.5 |
| 20260904184334 | 97 | 150 | 1.7 | 5.2 | 0.00 | 0.00 | 0.00 | 39 | 1010.8 |
| 20260904183401 | 97 | 233 | 4.3 | 8.7 | 0.00 | 0.00 | 0.00 | 38 | 1010.9 |
| 20260904182331 | 97 | 180 | 2.6 | 10.4 | 0.00 | 0.00 | 0.00 | 40 | 1011.0 |
| 20260904181338 | 96 | 164 | 2.6 | 8.7 | 0.00 | 0.00 | 0.00 | 40 | 1011.1 |
| 20260904180344 | 96 | 130 | 5.2 | 8.7 | 0.00 | 0.00 | 0.00 | 40 | 1011.2 |
| 20260904175333 | 96 | 127 | 2.6 | 11.3 | 0.00 | 0.00 | 0.00 | 41 | 1011.3 |
| 20260904174344 | 95 | 115 | 3.5 | 7.0 | 0.00 | 0.00 | 0.00 | 41 | 1011.3 |
| 20260904173330 | 95 | 148 | 6.1 | 12.2 | 0.00 | 0.00 | 0.00 | 43 | 1011.5 |
| 20260904172337 | 94 | 150 | 3.5 | 9.6 | 0.00 | 0.00 | 0.00 | 44 | 1011.4 |
| 20260904171343 | 94 | 167 | 6.1 | 9.6 | 0.00 | 0.00 | 0.00 | 44 | 1011.5 |
| 20260904170356 | 93 | 153 | 2.6 | 10.4 | 0.00 | 0.00 | 0.00 | 45 | 1011.4 |
| 20260904165342 | 93 | 167 | 7.0 | 12.2 | 0.00 | 0.00 | 0.00 | 46 | 1011.3 |
| 20260904164329 | 93 | 178 | 4.3 | 10.4 | 0.00 | 0.00 | 0.00 | 47 | 1011.3 |
| 20260904163336 | 92 | 84 | 4.3 | 9.6 | 0.00 | 0.00 | 0.00 | 48 | 1011.2 |
| 20260904162326 | 92 | 153 | 4.3 | 10.4 | 0.00 | 0.00 | 0.00 | 49 | 1011.2 |
| 20260904161333 | 91 | 99 | 4.3 | 10.4 | 0.00 | 0.00 | 0.00 | 49 | 1011.1 |
| 20260904160339 | 91 | 146 | 7.8 | 12.2 | 0.00 | 0.00 | 0.00 | 50 | 1011.2 |
| 20260904155327 | 91 | 189 | 5.2 | 12.2 | 0.00 | 0.00 | 0.00 | 51 | 1011.0 |
| 20260904154337 | 90 | 140 | 5.2 | 8.7 | 0.00 | 0.00 | 0.00 | 52 | 1011.0 |
| 20260904153342 | 90 | 201 | 4.3 | 13.0 | 0.00 | 0.00 | 0.00 | 52 | 1010.9 |
| 20260904152349 | 90 | 153 | 3.5 | 7.8 | 0.00 | 0.00 | 0.00 | 53 | 1011.0 |
| 20260904151335 | 89 | 171 | 4.3 | 8.7 | 0.00 | 0.00 | 0.00 | 54 | 1011.0 |
| 20260904150326 | 89 | 143 | 2.6 | 6.1 | 0.00 | 0.00 | 0.00 | 55 | 1010.9 |
| 20260904145334 | 88 | 145 | 3.5 | 7.8 | 0.00 | 0.00 | 0.00 | 55 | 1010.9 |
| 20260904144339 | 88 | 192 | 3.5 | 7.8 | 0.00 | 0.00 | 0.00 | 56 | 1010.9 |
| 20260904143326 | 87 | 113 | 2.6 | 8.7 | 0.00 | 0.00 | 0.00 | 57 | 1010.8 |
| 20260904142338 | 87 | 104 | 3.5 | 7.8 | 0.00 | 0.00 | 0.00 | 58 | 1010.7 |
| 20260904141344 | 86 | 169 | 3.5 | 7.0 | 0.00 | 0.00 | 0.00 | 59 | 1010.6 |
| 20260904140351 | 85 | 145 | 2.6 | 6.1 | 0.00 | 0.00 | 0.00 | 60 | 1010.5 |
| 20260904135357 | 85 | 133 | 0.9 | 7.8 | 0.00 | 0.00 | 0.00 | 60 | 1010.4 |
| 20260904134402 | 85 | 131 | 1.7 | 6.1 | 0.00 | 0.00 | 0.00 | 60 | 1010.3 |
| 20260904133349 | 85 | 159 | 2.6 | 6.1 | 0.00 | 0.00 | 0.00 | 60 | 1010.0 |
| 20260904132359 | 84 | 116 | 0.0 | 5.2 | 0.00 | 0.00 | 0.00 | 60 | 1009.9 |
| 20260904131346 | 84 | 146 | 0.9 | 4.3 | 0.00 | 0.00 | 0.00 | 60 | 1009.7 |
| 20260904130330 | 84 | 83 | 1.7 | 5.2 | 0.00 | 0.00 | 0.00 | 60 | 1009.6 |
| 20260904125336 | 85 | 94 | 0.0 | 2.6 | 0.00 | 0.00 | 0.00 | 59 | 1009.4 |
| 20260904124347 | 85 | 136 | 1.7 | 6.1 | 0.00 | 0.00 | 0.00 | 59 | 1009.2 |
| 20260904123332 | 85 | 113 | 1.7 | 5.2 | 0.00 | 0.00 | 0.00 | 59 | 1009.2 |
| 20260904122338 | 85 | 145 | 0.0 | 2.6 | 0.00 | 0.00 | 0.00 | 58 | 1009.0 |
| 20260904121325 | 85 | 115 | 0.9 | 2.6 | 0.00 | 0.00 | 0.00 | 58 | 1009.0 |
| 20260904120337 | 85 | 109 | 0.9 | 6.1 | 0.00 | 0.00 | 0.00 | 58 | 1008.9 |
| 20260904115344 | 85 | 94 | 1.7 | 5.2 | 0.00 | 0.00 | 0.00 | 57 | 1009.0 |
| 20260904114351 | 85 | 84 | 0.9 | 3.5 | 0.00 | 0.00 | 0.00 | 57 | 1008.9 |
| 20260904113339 | 86 | 71 | 0.0 | 1.7 | 0.00 | 0.00 | 0.00 | 56 | 1008.9 |
| 20260904112330 | 86 | 74 | 0.0 | 5.2 | 0.00 | 0.00 | 0.00 | 56 | 1008.9 |
| 20260904111336 | 86 | 119 | 3.5 | 7.0 | 0.00 | 0.00 | 0.00 | 56 | 1008.9 |
| 20260904110344 | 86 | 111 | 0.9 | 2.6 | 0.00 | 0.00 | 0.00 | 55 | 1008.8 |
| 20260904105330 | 86 | 111 | 0.9 | 2.6 | 0.00 | 0.00 | 0.00 | 55 | 1008.8 |
| 20260904104340 | 86 | 59 | 0.0 | 4.3 | 0.00 | 0.00 | 0.00 | 54 | 1008.8 |
| 20260904103327 | 86 | 107 | 1.7 | 6.1 | 0.00 | 0.00 | 0.00 | 54 | 1008.7 |
| 20260904102334 | 86 | 112 | 2.6 | 7.0 | 0.00 | 0.00 | 0.00 | 54 | 1008.6 |
| 20260904101401 | 86 | 92 | 2.6 | 6.1 | 0.00 | 0.00 | 0.00 | 54 | 1008.4 |
| 20260904100331 | 87 | 109 | 1.7 | 6.1 | 0.00 | 0.00 | 0.00 | 54 | 1008.3 |
| 20260904095337 | 86 | 144 | 0.9 | 4.3 | 0.00 | 0.00 | 0.00 | 54 | 1008.4 |
| 20260904094404 | 86 | 94 | 0.9 | 5.2 | 0.00 | 0.00 | 0.00 | 54 | 1008.4 |
| 20260904093351 | 86 | 88 | 0.9 | 3.5 | 0.00 | 0.00 | 0.00 | 55 | 1008.3 |
| 20260904092336 | 87 | 90 | 1.7 | 2.6 | 0.00 | 0.00 | 0.00 | 55 | 1008.3 |
| 20260904091327 | 87 | 85 | 1.7 | 3.5 | 0.00 | 0.00 | 0.00 | 55 | 1008.2 |
| 20260904090334 | 87 | 46 | 0.9 | 3.5 | 0.00 | 0.00 | 0.00 | 55 | 1008.3 |
| 20260904085341 | 87 | 74 | 0.9 | 1.7 | 0.00 | 0.00 | 0.00 | 54 | 1008.2 |
| 20260904084331 | 87 | 65 | 0.0 | 1.7 | 0.00 | 0.00 | 0.00 | 54 | 1008.2 |
| 20260904083339 | 87 | 69 | 0.0 | 0.9 | 0.00 | 0.00 | 0.00 | 53 | 1008.4 |
| 20260904082347 | 88 | 69 | 0.0 | 2.6 | 0.00 | 0.00 | 0.00 | 53 | 1008.5 |
| 20260904081331 | 88 | 78 | 0.0 | 2.6 | 0.00 | 0.00 | 0.00 | 52 | 1008.5 |
| 20260904080336 | 88 | 88 | 0.0 | 2.6 | 0.00 | 0.00 | 0.00 | 51 | 1008.5 |
| 20260904075348 | 89 | 43 | 0.9 | 2.6 | 0.00 | 0.00 | 0.00 | 51 | 1008.4 |
| 20260904074332 | 89 | 59 | 0.9 | 1.7 | 0.00 | 0.00 | 0.00 | 50 | 1008.3 |
| 20260904073358 | 89 | 48 | 0.0 | 3.5 | 0.00 | 0.00 | 0.00 | 48 | 1008.3 |
| 20260904072404 | 90 | 74 | 0.0 | 0.9 | 0.00 | 0.00 | 0.00 | 47 | 1008.4 |
| 20260904071330 | 90 | 74 | 0.0 | 0.9 | 0.00 | 0.00 | 0.00 | 46 | 1008.4 |
| 20260904070341 | 91 | 74 | 0.0 | 0.9 | 0.00 | 0.00 | 0.00 | 45 | 1008.3 |
| 20260904065327 | 91 | 74 | 0.0 | 0.9 | 0.00 | 0.00 | 0.00 | 45 | 1008.2 |
| 20260904064333 | 91 | 182 | 0.0 | 0.9 | 0.00 | 0.00 | 0.00 | 44 | 1008.1 |
| 20260904063340 | 92 | 183 | 0.0 | 0.9 | 0.00 | 0.00 | 0.00 | 43 | 1008.0 |
| 20260904062351 | 92 | 182 | 0.0 | 1.7 | 0.00 | 0.00 | 0.00 | 43 | 1008.0 |
| 20260904061336 | 92 | 155 | 0.0 | 4.3 | 0.00 | 0.00 | 0.00 | 43 | 1007.9 |
| 20260904060344 | 92 | 203 | 2.6 | 7.8 | 0.00 | 0.00 | 0.00 | 42 | 1007.9 |
| 20260904055331 | 93 | 88 | 1.7 | 4.3 | 0.00 | 0.00 | 0.00 | 42 | 1007.8 |
| 20260904054343 | 93 | 177 | 2.6 | 6.1 | 0.00 | 0.00 | 0.00 | 41 | 1007.7 |
| 20260904053329 | 93 | 171 | 2.6 | 6.1 | 0.00 | 0.00 | 0.00 | 41 | 1007.7 |
| 20260904052336 | 93 | 204 | 1.7 | 3.5 | 0.00 | 0.00 | 0.00 | 39 | 1007.7 |
| 20260904051327 | 93 | 186 | 2.6 | 6.1 | 0.00 | 0.00 | 0.00 | 38 | 1007.6 |
| 20260904050333 | 93 | 165 | 1.7 | 5.2 | 0.00 | 0.00 | 0.00 | 38 | 1007.6 |
| 20260904045402 | 93 | 186 | 1.7 | 4.3 | 0.00 | 0.00 | 0.00 | 38 | 1007.5 |
| 20260904044328 | 93 | 218 | 1.7 | 4.3 | 0.00 | 0.00 | 0.00 | 38 | 1007.5 |
| 20260904043334 | 93 | 178 | 0.9 | 2.6 | 0.00 | 0.00 | 0.00 | 39 | 1007.5 |
| 20260904042345 | 93 | 145 | 0.0 | 1.7 | 0.00 | 0.00 | 0.00 | 40 | 1007.5 |
| 20260904041351 | 93 | 153 | 0.0 | 1.7 | 0.00 | 0.00 | 0.00 | 40 | 1007.4 |
| 20260904040336 | 93 | 139 | 0.9 | 2.6 | 0.00 | 0.00 | 0.00 | 40 | 1007.3 |
| 20260904035343 | 93 | 140 | 2.6 | 4.3 | 0.00 | 0.00 | 0.00 | 40 | 1007.3 |
| 20260904034334 | 93 | 114 | 0.9 | 2.6 | 0.00 | 0.00 | 0.00 | 40 | 1007.1 |
| 20260904033342 | 93 | 126 | 0.9 | 2.6 | 0.00 | 0.00 | 0.00 | 40 | 1006.9 |
| 20260904032329 | 93 | 117 | 1.7 | 5.2 | 0.00 | 0.00 | 0.00 | 40 | 1006.8 |
| 20260904031335 | 93 | 112 | 0.9 | 2.6 | 0.00 | 0.00 | 0.00 | 40 | 1006.8 |
| 20260904030345 | 93 | 184 | 0.0 | 6.1 | 0.00 | 0.00 | 0.00 | 39 | 1006.7 |
| 20260904025332 | 94 | 150 | 4.3 | 7.8 | 0.00 | 0.00 | 0.00 | 38 | 1006.5 |
| 20260904024340 | 94 | 153 | 1.7 | 7.0 | 0.00 | 0.00 | 0.00 | 38 | 1006.5 |
| 20260904023328 | 95 | 144 | 1.7 | 10.4 | 0.00 | 0.00 | 0.00 | 37 | 1006.2 |
| 20260904022339 | 95 | 136 | 7.0 | 10.4 | 0.00 | 0.00 | 0.00 | 37 | 1006.1 |
| 20260904021327 | 96 | 149 | 3.5 | 11.3 | 0.00 | 0.00 | 0.00 | 37 | 1006.0 |
| 20260904020354 | 97 | 158 | 5.2 | 8.7 | 0.00 | 0.00 | 0.00 | 36 | 1006.0 |
| 20260904015359 | 97 | 158 | 3.5 | 9.6 | 0.00 | 0.00 | 0.00 | 35 | 1005.9 |
| 20260904014329 | 99 | 101 | 4.3 | 12.2 | 0.00 | 0.00 | 0.00 | 33 | 1005.8 |
| 20260904013336 | 100 | 177 | 0.0 | 2.6 | 0.00 | 0.00 | 0.00 | 29 | 1005.7 |
| 20260904012342 | 100 | 254 | 0.9 | 6.1 | 0.00 | 0.00 | 0.00 | 29 | 1005.7 |
| 20260904011351 | 100 | 236 | 1.7 | 3.5 | 0.00 | 0.00 | 0.00 | 28 | 1005.7 |
| 20260904010337 | 101 | 232 | 2.6 | 6.1 | 0.00 | 0.00 | 0.00 | 28 | 1005.6 |
| 20260904005328 | 101 | 235 | 0.9 | 5.2 | 0.00 | 0.00 | 0.00 | 28 | 1005.7 |
| 20260904004336 | 101 | 175 | 1.7 | 6.1 | 0.00 | 0.00 | 0.00 | 29 | 1005.8 |
| 20260904003343 | 101 | 242 | 3.5 | 7.0 | 0.00 | 0.00 | 0.00 | 28 | 1005.7 |
| 20260904002350 | 102 | 269 | 2.6 | 5.2 | 0.00 | 0.00 | 0.00 | 27 | 1005.7 |
| 20260904001340 | 102 | 289 | 2.6 | 7.0 | 0.00 | 0.00 | 0.00 | 27 | 1005.7 |
| 20260904000328 | 103 | 145 | 1.7 | 4.3 | 0.00 | 0.00 | 0.00 | 27 | 1005.8 |
| 20260903235354 | 103 | 36 | 1.7 | 4.3 | 0.00 | 0.00 | 0.00 | 27 | 1005.9 |
| 20260903234340 | 102 | 283 | 0.9 | 3.5 | 0.00 | 0.00 | 0.00 | 27 | 1005.9 |
| 20260903233331 | 102 | 292 | 1.7 | 7.0 | 0.00 | 0.00 | 0.00 | 28 | 1006.0 |
| 20260903232336 | 102 | 320 | 3.5 | 7.0 | 0.00 | 0.00 | 0.00 | 28 | 1006.1 |
| 20260903231343 | 102 | 223 | 2.6 | 8.7 | 0.00 | 0.00 | 0.00 | 27 | 1006.2 |
| 20260903230349 | 103 | 249 | 1.7 | 7.8 | 0.00 | 0.00 | 0.00 | 28 | 1006.4 |
| 20260903225338 | 102 | 182 | 5.2 | 10.4 | 0.00 | 0.00 | 0.00 | 28 | 1006.4 |
| 20260903224405 | 102 | 150 | 3.5 | 8.7 | 0.00 | 0.00 | 0.00 | 28 | 1006.5 |
| 20260903223332 | 101 | 271 | 3.5 | 7.0 | 0.00 | 0.00 | 0.00 | 29 | 1006.7 |
| 20260903222340 | 101 | 234 | 0.9 | 6.1 | 0.00 | 0.00 | 0.00 | 29 | 1006.8 |